Location: Newark
(12.4436°N, 0.6167°W)
Time: 05:41:50
(UTC+00:00)

deb Explorer IX - Pass Details

Date: 09 December 2019
Orbit: 548 x 1101 km, 38.8° (Epoch: 19 January)

Event Time Altitude Azimuth Distance (km) Brightness Sun altitude
Rises 14:47:16 0° 247° (WSW) 2,968 ? 35.0°
Reaches altitude 10° 14:49:34 10° 254° (WSW) 2,132 ? 34.5°
Maximum altitude 14:54:18 42° 325° (NW) 1,072 ? 33.6°
Drops below altitude 10° 14:59:50 10° 36° (NE) 2,491 ? 32.6°
Sets 15:02:44 0° 43° (NE) 3,529 ? 32.0°
